Hlavní strana
METAR-TAF:

METAR-TAF

Letiště :

Sparta Community Airport (Hunter Field)

Sparta, Illinois, Spojené státy americké

zeměpisná šířka: 38-08-56N, zeměpisná délka: 089-41-55W, výška: 164 m

Aktuální stav počasí

Zpráva byla vytvořena před 21 minutami, v 10:35 UTC
Severozápadní vítr 7 kt
Teplota -1°C
Vlhkost vzduchu 100%
Tlak 1015 hPa
Viditelnost: 4.0 km
Zataženo ve výšce 300 ft
kouřmo

METAR: KSAR 271035Z AUTO 32007KT 2 1/2SM BR OVC003 M01/M01 A2997 RMK AO2 T10111011

Čas: 04:56 (10:56 UTC)


TAF: chybějící

Stav a předpovědi počasí z více než 4 000 letišť (zprávy METAR a TAF).

Červené a žluté tečky na mapě představují dostupné meteorologické stanice.

Když kurzor umístíte na tečku, zobrazí se název stanice.

Pak kliknutím zobrazíte stav a předpověď počasí.

Chcete-li změnit mapu, kliknutím na zelené tlačítko se znaménkem +mapu přiblížíte, kliknutím na zelené tlačítko se znaménkem – mapu oddálíte a kliknutím na zelené šipky přejdete na sousední mapy.


METAR-TAF: